Wind_Speed
33 34 34 34 35 35 36 36 36 35 35 35 35 35 35 36 35 36 39 39 40 41 41 42 44 44 44 46 46 46 46 47 49 49 49 49 49 51 52 53 53 53 53 52 53 54 55 56 58 58 60 62 65 67 69 71 71 71 71 71 72 73 74 75 76 78 81 85 89 90 91 90 88 86 85 85 86 87 88 88 88 90 92 93 91 90
35 35 35 36 37 37 38 38 38 38 37 37 37 37 37 38 38 38 40 40 41 42 42 43 45 45 45 47 48 48 48 49 51 51 51 51 53 54 54 54 54 54 54 53 54 56 57 58 59 60 62 65 67 69 70 71 71 72 73 73 73 74 74 76 78 82 85 89 92 93 92 89 87 86 87 88 89 90 90 92 93 93 92 88 83 81
36 37 37 37 38 38 39 40 40 40 40 40 39 39 39 40 41 40 41 43 43 43 43 45 46 46 47 48 49 50 50 51 52 51 51 53 54 55 55 55 56 56 55 56 57 59 60 60 60 62 65 67 68 69 70 71 72 73 74 75 75 75 76 78 81 85 89 91 92 92 90 89 88 88 88 89 91 92 93 94 93 88 82 75 68 68
37 38 38 39 39 39 40 41 42 43 42 41 42 42 42 42 43 43 43 45 45 45 46 48 49 49 50 50 50 51 51 52 53 52 54 55 56 56 55 57 58 57 58 59 61 62 62 61 61 63 66 68 69 70 71 73 74 74 75 75 75 76 78 81 84 88 90 91 91 89 88 88 89 90 90 90 91 93 95 92 85 76 68 62 57 59
38 39 40 40 40 41 41 42 44 45 44 43 44 45 44 45 46 46 46 47 47 47 48 50 51 51 51 51 51 51 53 54 54 55 57 57 56 56 57 58 59 59 61 63 63 63 61 61 62 65 68 70 71 72 73 74 75 75 76 75 76 77 80 83 86 89 91 90 90 88 88 87 88 89 91 92 92 93 90 81 72 63 58 55 51 53
39 39 40 42 42 42 43 43 45 46 47 46 46 46 46 46 46 47 47 49 49 48 49 50 52 53 52 51 51 52 54 55 55 57 58 57 56 56 58 59 59 61 63 64 63 62 61 62 65 68 71 72 73 74 74 75 75 76 76 76 77 79 82 85 88 90 90 90 90 90 90 90 89 90 92 94 94 89 78 65 59 54 52 53 48 48
41 40 41 42 43 43 44 44 45 48 49 49 47 47 48 47 47 48 49 50 50 50 51 50 52 56 54 52 52 54 55 55 56 58 58 56 56 57 59 59 60 62 64 64 62 61 61 64 67 71 73 74 75 75 75 75 76 76 76 77 79 82 84 87 88 89 89 89 89 89 91 91 92 93 94 96 92 81 67 56 53 51 50 52 47 45
43 42 42 43 43 44 45 45 47 49 50 51 50 49 49 48 49 50 51 52 51 52 51 48 51 57 56 53 53 54 54 54 56 57 57 56 57 59 60 60 62 64 65 64 62 61 63 67 70 73 75 76 76 75 75 76 76 75 76 78 81 84 86 88 89 89 89 89 89 90 90 91 93 95 96 95 84 70 61 55 53 51 50 50 45 44
45 45 44 45 45 46 46 47 49 50 52 52 52 51 50 50 51 52 53 52 52 54 51 47 50 56 57 55 53 53 54 54 56 57 58 58 59 60 61 62 63 65 65 64 62 62 65 69 73 75 76 75 75 75 75 76 75 75 77 80 82 85 87 88 89 89 88 89 90 90 91 92 94 96 96 88 73 62 58 55 53 51 50 48 44 43
47 46 46 47 47 48 48 49 50 52 53 53 53 52 51 51 51 52 53 52 52 54 50 48 51 55 58 56 53 53 54 54 56 58 60 61 61 63 63 64 65 66 66 65 63 65 68 72 74 75 75 74 73 74 74 74 74 76 78 81 83 86 87 88 88 88 88 89 90 90 93 94 95 97 93 79 63 57 57 55 53 51 49 46 43 42
48 47 48 49 49 50 50 51 52 53 54 54 54 54 53 53 52 52 52 51 53 53 51 51 53 55 59 57 53 54 54 55 57 60 62 63 63 64 65 65 66 67 67 65 64 67 70 73 75 75 75 73 73 73 72 73 74 77 79 81 84 86 87 87 88 88 88 89 90 91 94 95 96 96 87 71 58 55 56 54 52 49 47 44 42 42
49 48 49 50 50 51 52 53 54 55 56 57 57 56 55 54 52 52 51 50 53 54 53 54 55 57 59 57 54 55 56 57 60 63 64 65 65 66 65 66 67 68 67 65 66 69 71 73 75 75 73 72 72 71 71 73 76 78 80 83 85 86 86 87 87 88 88 89 90 92 94 96 96 92 80 65 56 55 56 55 52 47 44 41 41 42
50 49 50 51 52 53 54 55 57 58 59 59 59 59 57 54 53 54 53 53 55 55 55 56 57 58 58 56 56 58 58 60 62 64 65 65 66 66 65 67 68 68 66 66 67 70 72 74 74 73 72 71 71 70 72 75 77 79 81 84 85 85 86 87 87 87 87 88 90 93 96 97 95 86 72 61 56 56 57 56 52 47 43 40 41 44
52 53 53 53 54 55 56 57 58 59 60 61 61 60 57 54 55 56 55 56 57 56 56 56 57 59 58 57 59 60 60 61 63 64 64 65 66 64 65 67 68 67 66 66 69 71 73 74 73 72 71 70 69 70 74 76 78 80 83 85 85 86 86 86 86 86 86 88 90 94 97 97 93 80 66 60 57 57 58 56 52 46 42 39 41 46
55 56 56 56 56 57 58 59 60 61 61 62 61 59 57 54 54 56 57 57 57 57 56 55 56 58 58 59 60 60 60 62 63 62 63 65 65 64 66 67 66 66 66 68 70 72 73 73 71 71 70 69 70 72 75 77 79 82 84 85 85 85 85 86 86 86 87 88 91 94 97 96 89 74 63 59 58 57 57 54 50 45 41 40 41 46
56 57 57 58 58 59 60 61 61 62 62 63 61 59 57 55 55 56 58 58 58 59 58 57 58 59 59 60 59 59 61 62 62 61 63 65 64 64 66 65 64 65 67 70 72 73 73 71 71 70 69 69 71 74 76 78 81 83 84 84 85 84 84 85 86 86 88 89 91 94 96 95 84 69 61 60 58 57 56 51 48 44 40 41 42 46
57 58 59 59 59 60 61 62 62 62 63 63 61 59 58 57 56 57 59 60 60 61 61 60 61 63 63 61 58 60 62 62 62 63 64 64 64 64 64 63 63 66 69 71 72 72 71 70 70 69 68 70 74 75 77 79 81 83 84 84 84 84 84 84 84 86 88 90 92 94 96 92 79 65 60 59 58 56 54 49 46 44 40 41 43 46
58 59 60 60 60 61 62 63 63 63 64 64 61 59 58 57 56 58 61 62 62 63 65 65 65 66 66 63 60 63 65 63 63 65 66 64 64 63 63 62 64 67 70 72 72 71 69 69 69 68 70 73 75 76 78 80 81 83 84 84 84 84 84 84 84 85 88 91 93 95 95 89 74 63 60 60 58 56 51 47 45 45 42 41 44 46
59 61 61 62 62 63 64 64 64 64 65 64 62 61 59 56 56 58 62 62 62 64 67 69 68 68 68 65 64 66 66 64 66 68 67 65 64 63 62 62 66 69 71 73 71 69 68 68 67 68 72 75 76 77 79 80 82 82 83 83 84 84 84 85 85 86 88 91 94 95 93 85 70 61 60 60 59 56 51 46 45 45 44 41 44 47
60 62 63 64 65 66 65 64 64 66 67 65 63 62 60 57 57 59 62 63 61 62 68 72 71 70 69 66 65 67 65 65 69 70 68 66 65 64 62 63 67 69 71 72 69 67 67 67 67 70 74 75 76 78 79 80 81 81 82 83 84 84 84 84 86 87 89 92 94 94 90 79 66 61 61 60 60 57 50 47 46 45 44 42 44 48
61 63 65 66 67 68 66 65 66 67 66 64 63 62 60 58 59 61 64 64 61 63 69 72 73 74 72 68 66 65 63 65 70 70 68 68 67 64 62 64 68 69 71 70 67 66 66 65 68 72 75 76 76 78 79 80 81 81 82 83 83 83 84 84 85 87 89 92 93 93 87 75 64 61 61 59 59 57 51 47 48 46 44 42 43 48
62 64 67 68 69 69 67 67 68 67 65 63 62 62 60 59 61 62 66 66 63 67 71 71 75 76 71 69 67 62 61 66 69 68 67 68 66 64 63 66 69 70 70 69 66 65 64 65 70 74 75 75 76 77 79 80 80 80 81 82 82 83 84 84 86 87 90 92 93 91 84 71 63 61 60 59 59 56 51 48 49 48 44 41 41 47
64 66 69 69 69 69 69 69 68 66 64 62 62 62 61 62 62 63 67 67 66 71 73 72 77 76 70 69 67 61 62 67 67 66 67 67 65 63 64 67 69 70 70 67 65 64 64 67 72 74 74 75 75 77 78 79 79 80 80 81 82 83 83 84 86 88 90 92 92 89 80 67 61 60 58 59 59 55 51 49 49 49 45 40 39 45
66 68 70 71 71 70 69 69 67 64 63 62 62 63 64 64 65 66 68 68 69 75 73 72 79 77 71 70 66 61 64 66 65 65 66 65 63 62 65 68 69 70 68 66 64 63 65 70 73 74 74 75 75 77 78 78 79 79 80 81 82 82 82 84 85 87 90 92 92 88 77 64 59 58 56 57 59 55 51 49 49 49 44 38 36 42
66 68 70 72 73 71 69 66 64 63 62 62 63 66 67 67 68 68 68 70 74 73 69 73 79 75 71 71 66 62 65 64 64 66 65 63 62 63 66 68 69 69 67 64 63 64 68 72 73 74 74 75 76 77 77 78 78 79 80 81 81 81 82 84 86 88 90 92 91 87 74 62 57 55 54 56 58 55 52 49 49 48 43 37 34 41
67 68 70 72 73 72 69 64 63 63 61 62 65 68 69 69 69 68 68 72 75 69 65 74 77 71 72 73 65 61 63 63 64 65 63 61 61 64 66 68 68 67 65 63 63 65 69 72 73 74 74 75 76 76 77 77 77 79 80 80 81 82 82 84 86 88 91 92 91 85 72 60 56 53 52 54 56 55 53 49 48 47 41 36 33 39
69 71 72 72 72 72 68 64 64 64 62 64 67 68 69 69 68 67 70 73 71 67 68 74 72 70 73 70 62 60 62 62 64 63 60 60 62 65 66 67 67 66 64 63 64 67 70 72 73 73 74 75 75 76 76 77 77 79 79 79 80 81 83 85 86 88 91 92 90 84 69 58 56 54 52 53 55 55 54 50 47 45 39 34 33 38
72 73 73 73 73 70 66 63 65 66 65 65 67 67 68 69 68 70 72 71 66 67 72 71 67 71 73 65 59 60 61 62 62 59 59 61 63 65 67 67 66 64 64 64 65 69 71 72 73 73 74 74 75 75 75 76 77 78 78 78 79 81 83 85 87 88 91 91 90 83 68 57 56 53 50 52 54 55 54 50 46 43 37 32 32 38
75 76 74 75 75 68 62 62 64 67 67 65 66 68 69 69 70 71 70 66 63 68 74 69 64 73 74 63 57 59 61 61 59 58 60 62 63 66 67 66 65 64 64 64 67 70 72 73 73 73 73 74 74 74 74 75 77 77 77 78 78 81 83 85 87 89 91 91 88 81 66 56 55 53 49 51 53 54 53 49 44 41 36 31 31 37
78 78 75 77 75 65 60 63 66 68 68 65 65 69 70 69 69 68 66 63 64 69 72 67 68 74 69 57 56 59 59 57 57 58 60 61 64 66 66 65 64 64 64 65 68 71 73 73 73 72 73 74 73 73 74 75 76 76 76 77 78 80 83 85 87 89 91 90 87 78 64 55 55 53 49 49 52 53 51 48 43 39 35 31 30 36
79 79 77 77 74 64 60 65 68 67 66 64 67 70 69 66 64 63 62 62 64 69 68 67 72 72 60 52 56 57 56 56 58 59 60 62 64 65 64 64 64 63 64 66 69 72 73 73 73 72 73 74 73 73 74 75 76 76 76 76 78 81 83 85 87 89 90 89 85 77 63 54 54 53 48 47 50 52 50 47 42 37 34 31 28 34
80 81 78 75 73 67 63 66 66 63 64 68 70 68 64 61 61 62 62 62 64 66 65 67 71 66 55 53 55 53 54 57 59 60 61 63 64 64 63 64 64 63 64 67 70 72 73 72 72 72 73 73 72 72 74 75 75 75 75 76 78 80 82 85 87 89 90 87 83 75 62 53 53 52 48 45 47 50 49 46 41 36 33 30 27 31
79 80 75 72 73 70 66 66 64 63 67 71 67 61 59 61 63 63 62 61 62 64 64 66 66 60 54 54 53 52 54 57 58 60 61 62 63 63 63 64 64 64 65 68 70 72 72 72 71 72 72 72 71 72 74 75 75 75 75 76 78 81 82 85 87 89 89 86 81 73 61 53 53 51 46 43 44 47 48 45 39 34 31 29 25 28
77 76 71 69 72 72 68 66 65 66 68 67 62 59 60 62 63 62 61 60 60 62 63 63 61 56 54 54 53 53 55 56 58 60 61 62 63 63 63 64 64 64 66 68 71 72 71 71 71 72 72 71 71 72 74 74 74 75 75 76 78 81 83 85 87 88 88 84 79 71 60 52 52 51 45 41 41 44 46 43 38 33 29 27 24 24
73 70 68 69 71 71 68 66 67 67 64 63 63 62 61 61 62 61 61 60 59 60 62 61 58 54 53 54 54 54 55 56 58 59 60 62 63 63 64 64 63 64 66 69 71 71 70 70 70 71 71 70 71 72 73 73 74 74 75 76 79 81 83 86 87 87 87 82 75 68 58 51 51 50 44 39 38 41 44 42 36 31 27 24 22 21
68 67 68 69 70 70 68 66 67 66 62 62 65 62 59 60 62 64 64 62 59 60 61 59 55 53 54 55 54 53 54 57 59 60 61 63 63 63 64 64 64 65 67 69 70 70 69 70 70 70 70 70 71 72 72 72 73 73 74 76 78 80 83 85 87 86 84 79 72 65 56 50 50 49 43 38 36 38 42 42 36 30 25 21 19 19
65 66 67 69 70 68 67 66 67 67 65 63 61 59 59 62 64 66 66 63 60 59 58 55 53 54 55 55 53 53 56 60 61 61 62 64 63 63 63 64 64 66 68 69 69 69 69 70 71 70 69 69 70 71 71 72 72 73 74 76 78 80 83 85 86 85 82 76 69 62 55 49 50 49 42 36 35 35 38 41 37 30 25 19 17 17
65 66 66 67 67 65 65 66 67 68 68 65 61 61 62 64 65 66 67 68 63 56 53 52 54 54 54 53 53 56 61 63 63 64 64 64 63 63 63 64 64 66 68 69 68 68 69 70 70 69 68 68 70 71 71 71 72 72 74 76 78 80 83 84 85 83 80 74 65 59 53 49 50 50 42 34 33 33 36 39 38 31 25 21 17 16
64 64 63 63 63 62 63 66 67 68 69 67 64 62 62 64 64 66 70 68 58 49 50 52 52 52 52 53 57 62 65 66 66 65 65 63 63 63 63 63 64 67 68 68 67 67 68 69 68 68 67 68 69 70 70 70 71 72 74 76 78 81 83 84 84 82 78 70 62 56 52 50 51 51 45 35 31 32 34 36 37 33 25 22 20 17
61 61 60 60 60 61 64 66 67 67 68 66 63 59 61 63 64 65 66 60 50 47 50 49 48 50 53 57 62 67 68 68 67 66 64 63 63 62 62 63 65 67 67 67 67 67 67 67 67 66 67 67 68 69 69 69 71 72 74 76 79 81 83 84 83 80 75 67 58 53 51 50 50 50 45 36 30 30 33 33 35 34 28 23 23 21
59 59 59 60 61 62 65 66 67 66 65 63 60 59 60 61 59 57 55 49 46 47 47 47 50 54 58 62 66 68 69 68 67 65 63 62 62 61 62 63 65 66 66 66 65 66 66 66 65 66 66 67 67 67 68 68 70 72 74 76 79 81 83 83 81 78 72 64 55 50 50 50 50 49 45 37 30 28 30 31 32 33 31 25 23 24
56 58 60 61 62 63 63 64 66 66 61 58 59 59 56 53 51 49 46 45 47 49 50 52 56 59 61 64 66 68 69 68 66 64 62 61 61 60 62 64 65 65 64 64 64 65 64 64 64 65 65 66 67 67 67 68 70 72 74 76 79 81 82 81 79 75 69 60 52 48 49 50 50 49 45 38 30 27 27 28 29 31 31 27 23 23
56 59 60 60 60 61 62 63 66 66 61 56 56 53 49 46 46 47 49 52 54 55 56 57 58 58 61 64 66 68 68 67 64 62 61 60 60 60 62 63 64 63 63 63 63 63 62 62 63 64 64 65 66 66 67 69 70 72 74 77 79 81 81 80 77 73 66 57 49 46 48 49 50 49 45 37 29 25 25 25 26 27 28 27 23 20
56 56 58 58 59 61 63 65 68 67 60 53 49 46 45 47 49 52 56 59 59 58 58 58 56 57 60 63 66 67 67 65 63 61 60 60 60 60 62 62 62 62 62 62 62 61 61 61 62 63 64 64 65 66 67 69 70 72 74 77 79 80 80 78 75 70 63 53 46 44 46 48 49 49 46 38 28 23 23 23 24 24 23 24 22 17
56 57 59 60 61 63 66 68 67 61 54 48 46 47 50 53 56 59 63 62 61 60 59 57 55 56 59 62 65 67 66 64 61 59 59 59 59 61 62 61 61 61 60 60 60 59 59 60 60 62 62 63 64 66 67 69 70 72 74 77 79 79 79 76 72 67 59 50 43 42 44 46 48 49 47 40 29 21 20 21 22 22 19 18 19 14
58 59 60 62 64 66 67 65 60 55 50 49 51 55 57 59 62 65 66 64 63 62 59 55 54 56 60 63 65 65 64 61 59 58 58 58 59 61 61 60 60 60 59 59 58 57 58 59 59 60 61 62 63 65 67 69 71 73 75 77 78 79 78 74 69 64 56 46 40 40 42 44 46 48 47 39 29 22 19 18 19 21 19 15 13 10
54 57 61 63 64 63 61 56 53 54 54 55 60 63 64 64 66 67 67 66 64 61 57 54 54 58 61 63 64 63 61 58 57 57 58 58 60 60 60 59 59 58 57 57 56 56 57 58 58 58 59 60 62 64 66 69 71 74 76 77 77 77 76 72 66 60 53 43 37 38 41 42 43 45 45 38 29 22 19 17 16 17 17 14 10 7
50 54 58 59 57 56 54 53 54 57 61 65 68 68 66 66 68 69 68 67 63 59 55 54 56 60 62 63 63 61 58 56 56 57 57 59 60 59 58 58 57 56 55 55 54 55 56 56 57 57 58 59 61 63 66 69 71 74 76 76 76 76 73 68 62 56 50 41 35 35 39 41 42 43 42 39 30 21 15 14 16 17 16 14 11 7
46 49 52 54 57 58 57 58 63 69 73 74 72 66 64 66 69 69 68 64 60 56 54 56 59 61 62 63 61 58 56 56 56 56 57 58 58 57 56 55 54 54 53 53 54 55 55 55 56 56 57 59 61 63 66 69 72 74 75 76 75 74 71 65 58 53 47 40 34 33 36 39 41 41 40 38 34 27 17 11 13 17 16 13 12 10
52 54 57 64 70 71 69 71 76 79 78 73 67 63 64 67 68 67 64 60 56 54 56 58 60 61 62 61 59 56 55 55 56 56 57 57 56 55 54 53 52 52 51 52 53 54 54 54 55 56 57 59 61 63 66 69 72 74 75 75 74 71 68 63 55 49 44 38 33 31 33 37 39 40 39 36 34 30 23 13 10 14 16 14 12 11
65 66 70 76 79 80 79 79 79 77 72 67 63 63 65 67 67 65 62 58 55 55 57 60 61 61 61 59 57 55 55 55 56 56 56 55 54 53 51 50 50 50 51 51 52 52 53 53 54 55 57 58 61 64 67 69 72 73 74 74 72 68 65 60 53 46 41 36 32 29 31 35 38 38 38 36 31 28 25 19 14 14 14 12 11 11
Wind_Direction
323 323 325 326 327 328 328 328 327 326 325 324 323 320 318 314 313 311 308 308 307 306 309 310 309 312 315 316 317 319 321 322 322 320 320 320 318 316 313 311 311 311 310 310 311 311 312 314 312 311 313 315 314 313 312 311 310 309 308 307 307 306 305 304 304 303 303 303 302 300 300 300 300 301 302 303 303 302 300 299 296 294 292 290 287 284
323 323 324 325 326 328 328 328 327 327 326 325 324 322 320 318 316 315 312 310 308 307 310 310 310 313 317 318 318 320 322 322 321 320 320 319 316 315 313 311 310 310 309 309 310 311 314 314 312 314 317 316 314 312 311 310 310 309 309 308 308 306 305 304 304 304 304 303 303 302 303 304 304 305 306 306 305 304 302 301 300 298 295 291 287 283
322 321 323 324 325 326 326 326 326 326 326 325 324 321 320 318 316 316 314 312 311 311 311 310 309 311 316 318 318 320 322 321 320 319 318 316 316 315 313 311 310 309 308 309 311 313 315 313 313 316 317 314 312 312 311 311 310 310 310 309 308 307 306 305 305 304 304 304 304 305 306 308 309 309 309 308 307 305 304 304 302 299 294 290 285 279
319 320 322 323 324 325 324 324 324 324 325 325 323 320 319 318 316 316 315 312 312 311 311 309 308 311 314 315 316 319 320 319 319 319 317 316 316 315 312 311 310 309 308 309 312 313 313 312 314 316 315 313 312 312 312 312 312 311 310 309 308 307 307 306 306 305 305 305 306 307 309 311 311 311 310 309 308 307 307 305 301 297 292 290 282 271
318 319 321 322 323 323 322 322 322 323 324 324 323 321 320 319 318 316 315 311 310 311 310 308 308 309 310 311 315 318 318 318 318 317 317 316 316 315 312 311 310 309 308 309 311 312 311 312 314 314 314 313 313 314 314 313 312 311 310 309 308 308 307 307 307 306 306 307 308 309 310 311 311 311 310 310 310 309 308 304 299 295 292 290 277 264
315 317 319 320 321 322 321 321 321 321 322 322 322 321 319 318 316 315 314 311 310 310 309 309 310 306 306 311 315 317 317 318 317 316 316 316 316 314 312 311 310 309 308 309 310 310 311 312 314 314 315 315 315 315 313 312 311 311 310 309 308 308 308 308 308 308 308 309 311 312 313 313 312 312 311 312 312 311 308 303 298 295 293 291 275 260
313 315 317 317 319 320 319 319 319 319 320 320 320 319 317 316 315 315 314 311 311 310 308 313 312 306 308 313 316 317 318 317 317 316 316 316 316 314 312 312 310 308 307 308 310 311 312 313 314 315 316 317 316 314 313 312 311 311 310 309 309 309 309 309 309 309 310 312 313 314 315 315 316 315 314 314 314 312 308 304 300 295 294 292 274 259
312 314 316 316 317 318 318 318 318 318 318 318 318 317 317 316 314 314 312 311 312 310 311 317 312 307 311 315 317 319 318 317 317 316 317 317 316 314 314 312 309 307 307 309 311 311 313 314 316 317 317 317 315 313 312 312 311 310 310 309 309 310 310 310 310 311 313 314 316 316 317 317 317 317 316 316 315 311 308 305 301 297 295 291 272 257
310 313 315 315 316 316 316 317 316 317 317 318 318 317 317 315 314 313 311 312 312 310 314 317 311 309 312 316 319 319 317 317 317 317 318 318 316 315 314 311 308 308 309 310 312 313 314 316 317 317 317 315 313 312 312 311 310 310 310 310 310 311 311 311 312 313 315 316 318 318 318 318 318 318 317 316 314 310 307 304 300 296 295 290 269 256
309 312 313 314 315 315 315 315 316 316 316 318 318 317 316 314 314 313 311 312 311 311 315 315 310 310 312 317 320 317 317 320 319 319 320 318 317 316 314 310 309 310 311 311 313 314 316 317 317 316 314 312 311 311 311 310 310 310 310 311 311 311 311 312 313 315 317 318 318 318 319 319 319 319 318 316 313 309 307 303 298 293 293 289 266 254
307 310 311 312 314 313 314 314 315 315 315 316 316 317 316 314 314 313 312 313 311 312 314 312 309 309 311 316 318 316 320 322 322 321 320 318 318 316 313 311 311 311 311 313 314 315 316 316 315 313 312 311 311 311 310 309 309 310 311 311 311 312 312 313 315 316 318 319 319 319 319 319 320 320 319 316 312 308 306 303 297 289 289 286 265 254
305 307 308 310 311 311 313 314 314 314 315 316 316 317 316 315 315 312 312 312 310 312 313 310 309 309 311 316 317 316 321 324 323 322 319 319 318 315 312 311 312 311 311 313 313 314 315 314 312 311 311 311 311 311 310 309 310 311 311 312 312 313 313 314 315 317 319 319 319 319 320 320 321 321 318 315 311 309 307 304 298 287 283 282 265 253
303 304 306 308 309 310 312 313 313 314 315 316 317 317 315 316 314 312 313 313 311 312 312 310 310 310 313 317 316 318 323 324 323 320 319 319 317 313 311 311 311 310 310 312 313 313 313 311 310 310 311 311 311 310 310 310 311 311 312 312 313 313 314 315 316 318 320 320 320 320 321 322 323 321 317 313 311 310 309 307 300 287 276 275 262 252
303 304 305 307 308 310 312 313 313 314 315 315 316 315 316 316 313 313 314 312 311 311 310 310 310 311 315 316 316 321 325 324 321 319 319 317 314 311 309 309 309 309 310 312 312 312 311 310 310 311 311 311 310 310 310 311 312 312 312 313 313 314 315 316 318 320 320 321 322 322 322 323 324 321 316 313 312 312 312 308 302 289 273 267 258 249
304 304 306 306 307 309 311 311 312 313 314 314 315 314 315 314 312 313 312 310 309 308 308 310 310 312 315 314 317 324 326 323 320 319 317 314 311 308 308 308 308 309 311 312 312 311 310 310 311 311 311 311 311 311 312 312 312 312 313 313 314 315 316 317 319 321 321 322 323 323 323 324 324 321 315 313 313 314 314 309 302 293 274 262 254 247
303 303 304 304 306 308 309 310 311 313 314 313 313 313 313 312 311 312 310 308 307 306 309 312 311 313 314 315 321 327 325 321 319 317 314 311 308 307 307 307 308 310 311 311 311 310 311 312 312 311 311 311 311 312 312 312 312 313 313 313 315 316 317 319 321 322 322 323 324 324 324 325 324 320 314 313 315 315 314 309 302 295 278 260 251 245
301 301 302 303 305 307 307 308 309 312 313 312 312 312 310 310 311 311 309 308 308 309 311 312 312 314 314 316 323 326 323 319 316 315 312 309 307 307 306 307 308 310 310 310 310 311 312 312 312 311 311 311 312 313 313 313 313 313 314 314 316 317 318 320 321 322 323 324 325 325 325 326 324 319 315 315 317 316 313 308 301 296 283 262 250 244
299 300 301 302 304 305 305 306 308 310 310 310 310 309 309 310 311 310 309 309 311 312 312 312 313 314 314 318 325 325 322 318 316 315 312 308 308 307 306 307 309 310 310 310 311 312 313 312 311 311 311 312 313 313 313 313 314 314 315 316 317 319 320 321 321 323 324 325 326 327 326 326 324 319 316 316 318 316 311 307 301 296 287 267 250 243
299 298 299 301 303 303 303 306 307 308 309 310 309 308 309 310 310 310 310 310 312 314 313 312 313 313 314 320 325 324 320 317 315 314 311 309 308 306 306 308 309 310 310 310 311 313 312 311 311 311 311 312 313 313 314 314 314 315 316 317 318 320 321 322 323 325 326 327 327 328 327 326 323 319 318 318 318 317 311 306 303 297 290 273 252 241
298 298 299 301 301 301 303 305 306 308 309 308 307 307 308 308 309 309 309 310 313 314 312 312 313 313 314 320 323 321 317 314 314 313 310 309 308 307 307 308 310 310 309 309 312 312 311 310 310 311 312 313 313 314 314 314 315 316 317 318 319 321 322 322 324 326 327 328 328 329 328 325 322 320 319 319 318 317 311 306 305 300 291 277 255 240
297 298 299 300 300 301 303 304 305 307 307 306 306 306 306 308 308 308 308 309 312 313 310 310 312 313 315 319 321 319 315 312 312 311 309 309 308 307 308 308 310 310 308 310 312 311 310 310 311 311 312 313 314 314 314 315 317 317 318 319 320 321 321 323 325 326 328 329 329 329 328 325 322 321 320 319 319 317 312 307 307 303 293 280 259 241
297 297 298 299 300 301 302 303 304 306 306 305 304 304 306 307 306 307 305 306 310 310 307 309 311 311 314 319 319 316 312 311 311 309 308 308 307 307 308 309 310 308 308 311 311 310 310 310 311 312 312 313 314 314 315 316 317 317 318 319 320 321 322 324 326 327 329 330 330 330 328 324 322 322 321 320 320 318 313 309 309 306 297 283 262 241
296 296 296 297 298 299 301 302 304 306 306 304 302 303 306 305 305 305 303 305 309 306 307 311 309 308 315 317 315 312 310 310 308 306 305 305 306 306 307 308 308 307 309 311 310 309 310 310 311 312 312 313 314 314 316 316 317 317 319 320 320 321 322 325 327 328 329 330 331 331 328 323 321 323 322 320 320 319 314 310 311 308 300 286 264 241
294 294 295 296 297 299 300 302 304 306 305 302 301 303 305 305 305 303 303 307 306 305 309 310 305 309 316 313 310 310 309 308 306 303 303 304 305 305 305 307 307 307 309 310 309 309 310 311 311 312 312 313 314 315 316 316 317 318 319 319 320 321 323 325 327 328 329 330 332 332 328 323 322 324 324 322 321 320 315 312 312 310 303 288 263 239
292 293 294 295 296 298 300 302 304 305 302 301 302 304 305 304 302 302 305 306 303 307 311 305 303 312 314 308 309 311 308 305 303 302 303 304 304 304 305 306 306 307 309 309 308 309 310 311 312 312 312 313 314 315 316 316 317 318 319 319 320 321 323 326 328 329 330 331 332 332 328 323 324 325 325 324 323 322 318 313 313 312 305 289 263 238
291 291 292 293 295 297 300 302 303 302 300 299 301 303 303 301 299 301 303 301 302 309 308 301 305 311 309 306 310 309 304 302 301 301 303 303 302 303 304 305 306 308 309 307 307 309 310 311 312 312 312 313 315 316 316 317 318 318 319 319 320 322 324 327 328 329 331 332 333 333 328 323 324 326 326 328 327 324 320 315 314 314 307 289 263 237
288 289 291 293 294 297 299 299 299 299 297 297 300 301 299 298 299 300 300 300 305 307 302 303 308 308 307 309 310 306 302 300 299 301 302 301 302 304 305 305 307 308 307 306 307 309 310 311 312 312 313 314 315 316 317 317 318 318 318 319 321 323 325 327 329 330 332 332 333 333 328 323 325 327 327 329 330 327 322 317 314 315 309 291 264 238
287 289 292 294 295 296 296 295 296 298 297 297 299 298 297 298 299 299 299 303 307 302 301 308 310 305 307 310 306 302 300 298 300 302 302 302 303 304 305 306 307 307 306 306 307 309 311 312 312 312 313 314 315 316 317 317 318 318 319 320 322 324 325 327 329 331 332 332 333 333 329 324 325 326 325 328 331 329 323 318 315 315 310 293 266 240
288 290 293 294 294 294 293 293 296 296 295 296 297 296 296 298 299 300 301 305 304 298 302 310 307 304 308 309 303 298 297 299 302 303 303 303 303 304 305 305 306 305 305 306 308 310 311 311 311 312 312 314 315 316 316 317 317 318 319 320 322 324 326 328 330 332 332 332 333 333 329 325 326 326 325 328 331 330 324 319 316 315 312 296 268 243
288 290 293 294 293 291 291 294 295 294 293 294 294 293 296 299 301 301 302 302 300 299 305 308 302 304 310 307 298 295 297 301 303 303 303 303 303 304 305 305 305 304 304 306 308 310 311 311 311 312 313 314 316 316 316 317 317 318 319 321 323 325 327 329 330 332 333 333 333 333 329 325 327 327 325 327 331 332 326 320 316 315 313 300 272 245
288 291 293 294 292 290 292 295 294 292 292 292 291 293 298 302 302 300 300 300 300 301 304 302 300 306 309 299 294 297 300 301 302 303 303 302 303 304 304 303 304 303 304 306 308 310 311 311 311 313 314 315 316 315 316 317 317 319 320 322 324 326 327 329 331 332 333 333 333 333 329 325 327 328 324 325 331 333 328 322 317 315 314 304 278 248
288 291 293 292 291 291 294 293 291 292 291 290 292 298 302 302 299 298 299 301 301 301 300 299 302 306 303 295 295 298 299 301 303 303 302 302 303 303 302 303 303 303 304 306 309 310 310 310 311 312 314 314 315 315 316 317 318 319 321 323 325 326 328 330 331 333 333 333 333 333 330 326 327 328 324 324 330 334 330 323 317 315 315 308 286 253
288 290 291 290 290 291 292 291 291 291 289 291 297 300 299 297 298 299 301 302 301 299 298 300 302 302 298 295 297 298 300 303 303 302 302 302 302 301 301 302 302 303 304 306 309 310 310 310 311 312 314 314 314 315 316 317 319 320 322 324 326 327 329 330 332 333 333 333 333 332 330 327 328 328 324 323 329 333 332 325 317 313 314 312 294 259
288 289 289 289 289 289 290 291 292 290 290 295 299 296 295 297 300 301 302 302 301 298 298 299 300 298 295 295 297 299 303 305 303 302 302 302 301 301 301 302 302 303 305 307 309 310 309 310 311 313 314 314 314 316 317 318 320 321 323 325 327 328 329 331 333 333 334 333 332 331 330 327 327 328 324 322 326 333 333 328 318 312 312 314 302 267
288 287 288 288 288 288 290 292 291 290 293 297 296 295 297 299 299 300 301 302 302 299 297 297 298 296 293 294 298 303 306 305 303 302 302 301 300 300 301 302 302 303 306 308 309 309 310 310 312 313 313 313 314 316 317 319 320 322 324 326 327 329 330 332 333 334 333 333 332 330 329 327 327 327 324 320 324 331 334 331 320 310 308 312 306 276
285 285 287 287 287 288 291 291 290 291 294 295 296 299 300 298 299 300 300 302 302 298 295 295 295 293 292 295 301 305 305 305 304 303 301 300 300 300 301 302 302 304 307 308 309 309 310 310 311 312 312 312 314 316 318 319 321 323 325 326 327 329 331 332 333 334 334 333 331 329 328 327 327 327 324 320 321 328 333 333 325 310 302 304 302 283
282 284 286 287 287 288 290 290 291 293 294 295 297 299 299 298 300 300 299 302 303 298 294 294 292 290 293 298 302 304 305 306 306 302 299 299 300 301 301 302 303 305 307 308 309 309 309 310 311 311 312 314 315 317 318 320 321 323 325 326 328 330 332 333 333 334 334 333 330 328 327 327 327 327 324 319 318 324 331 334 330 314 297 292 292 282
281 283 285 286 286 287 289 291 293 295 296 297 297 297 297 298 299 298 297 302 305 300 293 290 288 290 295 299 302 304 306 307 306 301 298 299 300 301 301 302 304 305 307 308 308 308 309 310 311 311 313 314 316 317 319 320 322 324 325 327 329 331 332 333 333 334 333 332 330 327 327 328 328 327 325 319 316 322 328 333 334 322 298 283 278 273
281 282 283 283 284 287 290 292 294 295 296 298 298 298 298 297 298 297 298 304 306 297 289 289 289 292 297 300 302 304 305 306 305 301 299 299 300 301 302 303 304 305 306 307 307 308 309 310 310 311 313 314 316 318 319 321 323 324 326 328 329 331 333 333 334 334 334 332 329 327 327 328 327 326 325 320 316 320 326 332 336 331 308 282 269 262
279 280 280 282 285 289 291 292 293 295 296 298 300 300 299 297 298 299 300 304 303 293 291 293 293 296 299 301 302 303 304 304 303 300 298 299 300 301 302 302 303 304 306 306 307 308 309 309 310 311 312 314 316 317 319 321 323 325 326 328 330 332 333 333 334 334 334 332 328 326 326 327 327 326 325 321 316 317 325 331 335 336 324 293 270 258
278 279 282 285 287 289 291 293 294 294 296 300 301 300 299 299 299 300 301 304 303 301 301 301 299 301 302 301 301 301 302 303 302 298 297 298 300 301 301 301 303 304 305 306 307 308 309 309 309 311 312 314 316 318 320 322 323 325 327 329 330 332 333 334 334 334 333 331 327 325 325 326 327 327 327 324 317 314 322 329 331 334 333 314 281 260
280 282 284 285 287 290 293 296 295 294 296 299 299 298 298 297 297 298 301 305 307 309 308 306 304 303 301 299 300 300 301 301 299 297 297 298 299 300 300 301 302 303 304 306 306 307 308 309 309 311 313 315 317 318 320 322 324 326 327 329 331 332 333 334 334 334 333 330 327 325 325 326 328 329 327 324 318 314 319 326 326 329 335 329 302 270
280 282 283 285 288 292 293 294 294 295 296 297 296 295 294 292 293 298 304 308 310 311 311 309 307 303 300 299 299 299 299 299 297 296 298 299 299 300 300 301 302 303 304 305 306 307 308 308 310 312 314 315 317 319 321 323 325 326 328 330 331 333 333 334 334 333 332 329 326 324 325 326 328 330 328 323 319 315 316 321 321 323 330 333 317 284
280 282 284 286 288 289 290 291 292 295 296 296 294 293 291 291 296 303 308 311 313 313 313 311 306 302 301 300 298 297 297 297 296 297 298 298 299 299 299 301 302 303 304 305 306 307 307 308 310 312 314 316 318 319 321 323 325 327 329 330 332 333 333 333 333 333 331 328 325 323 325 327 329 331 329 322 317 316 316 315 315 315 324 332 325 302
282 283 285 287 288 288 289 292 294 295 294 295 295 294 292 295 300 306 309 311 313 314 314 310 306 302 300 298 296 296 296 296 296 297 298 298 299 299 300 301 302 303 304 305 306 307 307 309 311 312 314 316 318 320 322 323 325 327 329 330 332 333 333 333 333 332 330 327 324 322 324 327 330 333 331 323 316 317 317 313 310 308 314 327 329 315
284 285 286 289 290 290 292 294 294 291 291 295 299 299 297 299 303 306 309 311 313 314 312 308 304 301 297 295 295 295 296 296 296 297 297 298 298 298 300 302 302 303 304 305 306 307 308 310 311 313 315 317 318 321 322 323 325 327 329 331 332 333 333 333 333 332 329 326 323 322 323 326 330 334 333 325 318 318 320 316 310 305 304 316 327 319
284 286 288 291 293 292 293 293 290 289 293 299 302 301 300 302 304 306 309 311 312 311 309 305 301 297 295 294 295 295 295 295 295 296 296 296 297 299 300 301 301 303 304 305 306 307 308 310 312 313 315 317 319 321 322 324 325 327 329 331 332 333 333 333 332 331 328 325 322 321 323 326 329 333 334 328 320 316 316 316 314 306 297 297 307 314
284 286 288 293 293 291 292 291 290 291 296 300 301 301 300 301 303 306 309 311 310 308 305 301 297 295 293 294 294 294 294 294 294 295 295 295 297 299 299 300 302 303 304 304 306 307 309 310 312 313 315 317 319 321 322 324 326 328 330 332 333 333 333 332 332 331 327 325 322 321 323 326 329 332 335 334 329 320 310 308 313 311 299 286 281 282
284 287 290 292 291 290 291 293 292 294 296 298 299 299 298 300 303 307 309 309 307 304 300 296 294 293 292 292 292 292 292 293 293 293 294 295 297 298 299 300 301 302 303 304 306 307 309 310 312 313 315 317 319 322 323 325 327 329 331 332 333 333 332 331 331 329 326 324 321 320 323 327 329 331 336 339 337 330 317 301 302 305 301 288 272 262
284 287 289 290 290 291 292 292 292 295 297 298 297 295 297 301 305 307 308 306 303 299 295 292 292 291 291 291 291 291 291 292 292 292 293 295 297 297 299 300 301 302 303 304 306 307 309 310 312 313 316 318 321 323 325 327 328 330 332 333 333 333 331 331 330 328 325 322 319 318 322 326 329 332 337 341 340 333 322 308 294 297 298 288 267 250
283 286 288 289 290 291 291 291 293 296 297 295 292 293 297 302 305 306 305 303 299 295 292 291 290 290 290 290 289 290 291 291 291 292 294 295 296 297 298 299 301 302 303 305 306 307 309 310 312 314 317 320 322 324 326 328 330 332 333 333 333 332 330 329 329 327 324 321 317 316 321 326 329 333 337 340 340 333 322 309 295 295 297 283 257 234
Height
5829 5826 5824 5822 5821 5818 5816 5814 5812 5810 5807 5805 5803 5801 5799 5797 5796 5794 5790 5789 5786 5783 5783 5780 5776 5774 5772 5769 5767 5765 5763 5760 5757 5754 5752 5749 5747 5744 5740 5736 5734 5730 5727 5725 5724 5722 5720 5717 5714 5710 5706 5701 5696 5691 5687 5682 5677 5673 5668 5664 5660 5654 5648 5643 5638 5634 5630 5623 5617 5612 5607 5603 5599 5594 5588 5584 5579 5570 5565 5561 5556 5551 5544 5538 5534 5529
5825 5823 5821 5819 5817 5815 5812 5810 5808 5806 5804 5802 5799 5797 5795 5792 5791 5789 5786 5784 5782 5779 5777 5774 5770 5769 5767 5764 5761 5760 5759 5756 5753 5750 5747 5745 5742 5739 5735 5730 5727 5724 5721 5719 5717 5715 5712 5709 5705 5700 5696 5692 5688 5683 5678 5674 5669 5663 5658 5653 5649 5645 5639 5633 5626 5620 5615 5609 5601 5594 5590 5586 5584 5581 5574 5568 5562 5554 5548 5541 5534 5528 5522 5515 5511 5506
5822 5819 5818 5816 5814 5811 5809 5806 5803 5802 5800 5798 5796 5793 5791 5788 5786 5785 5782 5778 5776 5774 5772 5769 5765 5764 5762 5760 5757 5755 5753 5751 5748 5746 5743 5740 5737 5733 5729 5724 5721 5717 5715 5713 5710 5707 5704 5700 5695 5691 5687 5684 5680 5675 5670 5665 5659 5653 5648 5643 5638 5633 5628 5622 5615 5608 5601 5596 5588 5581 5575 5569 5566 5565 5560 5554 5547 5538 5531 5525 5515 5508 5501 5496 5493 5488
5818 5816 5814 5812 5810 5808 5805 5802 5799 5797 5796 5794 5792 5789 5787 5784 5781 5779 5777 5773 5771 5769 5766 5763 5760 5759 5757 5754 5753 5751 5748 5745 5742 5740 5737 5734 5731 5727 5723 5719 5715 5711 5708 5705 5703 5700 5696 5692 5687 5683 5680 5676 5671 5666 5661 5655 5649 5644 5638 5633 5628 5623 5617 5610 5603 5596 5589 5583 5578 5572 5567 5560 5553 5548 5544 5539 5534 5524 5515 5508 5499 5492 5486 5482 5479 5475
5814 5812 5810 5808 5806 5804 5802 5799 5796 5793 5791 5790 5788 5784 5782 5780 5776 5774 5772 5768 5766 5764 5761 5757 5755 5754 5752 5750 5749 5747 5743 5740 5737 5734 5731 5728 5725 5721 5717 5713 5709 5706 5702 5699 5696 5693 5688 5684 5680 5676 5672 5668 5662 5657 5651 5645 5639 5634 5629 5623 5618 5613 5606 5599 5591 5583 5577 5571 5566 5561 5558 5554 5547 5540 5531 5523 5519 5512 5501 5493 5485 5480 5475 5471 5469 5466
5810 5808 5806 5804 5802 5800 5797 5795 5792 5788 5787 5786 5784 5781 5778 5776 5773 5770 5767 5763 5761 5760 5756 5753 5749 5746 5746 5746 5744 5741 5738 5735 5732 5728 5725 5722 5719 5715 5710 5707 5703 5700 5696 5693 5690 5685 5681 5676 5672 5668 5664 5659 5653 5648 5642 5637 5631 5625 5620 5614 5608 5603 5596 5589 5581 5573 5565 5560 5554 5547 5542 5538 5534 5529 5521 5510 5502 5496 5489 5481 5474 5470 5466 5462 5460 5459
5806 5805 5803 5800 5798 5796 5793 5791 5788 5785 5782 5781 5780 5777 5774 5772 5768 5765 5762 5758 5757 5754 5751 5750 5745 5737 5738 5741 5738 5735 5732 5729 5726 5722 5719 5716 5713 5708 5704 5701 5697 5692 5688 5686 5682 5678 5673 5669 5664 5659 5654 5649 5644 5638 5633 5627 5622 5616 5610 5605 5598 5592 5586 5578 5570 5562 5554 5548 5543 5537 5530 5523 5515 5510 5505 5496 5487 5479 5474 5470 5465 5461 5458 5454 5452 5452
5800 5800 5799 5796 5794 5792 5789 5787 5784 5781 5778 5776 5774 5772 5769 5766 5763 5760 5756 5753 5751 5747 5745 5746 5739 5731 5732 5734 5733 5729 5726 5723 5720 5716 5713 5710 5706 5701 5698 5694 5690 5685 5682 5678 5675 5670 5666 5661 5656 5651 5645 5640 5635 5630 5624 5618 5613 5608 5602 5596 5588 5581 5575 5567 5559 5552 5543 5535 5530 5525 5519 5513 5505 5496 5489 5481 5474 5467 5462 5460 5456 5452 5450 5446 5444 5445
5795 5795 5794 5791 5790 5787 5785 5782 5779 5777 5773 5771 5769 5766 5764 5761 5757 5754 5750 5748 5745 5741 5741 5741 5733 5726 5725 5728 5728 5724 5720 5718 5714 5710 5707 5703 5699 5695 5691 5687 5683 5678 5675 5671 5667 5663 5658 5653 5648 5643 5638 5633 5628 5622 5617 5611 5606 5601 5595 5588 5580 5572 5565 5558 5549 5542 5534 5525 5518 5512 5506 5501 5494 5486 5477 5468 5462 5457 5452 5450 5447 5443 5442 5439 5437 5437
5790 5790 5788 5786 5784 5782 5779 5777 5775 5771 5768 5766 5764 5761 5759 5755 5753 5749 5744 5743 5739 5735 5736 5734 5728 5722 5719 5722 5722 5718 5715 5713 5708 5704 5700 5696 5692 5689 5685 5679 5675 5671 5667 5663 5660 5655 5650 5645 5640 5636 5631 5627 5622 5616 5610 5605 5599 5593 5587 5581 5573 5564 5556 5549 5541 5533 5526 5517 5509 5502 5495 5489 5483 5474 5466 5458 5453 5448 5444 5441 5438 5434 5433 5431 5430 5430
5785 5785 5783 5781 5779 5776 5774 5772 5769 5766 5763 5761 5758 5756 5753 5749 5747 5743 5739 5737 5733 5730 5730 5726 5722 5717 5714 5717 5716 5711 5710 5707 5701 5696 5692 5688 5686 5681 5676 5671 5667 5663 5659 5656 5652 5647 5643 5638 5633 5628 5624 5619 5614 5609 5603 5598 5592 5586 5579 5573 5566 5557 5548 5540 5532 5525 5518 5510 5501 5494 5486 5479 5472 5462 5453 5448 5444 5440 5436 5432 5429 5426 5424 5423 5423 5424
5781 5780 5779 5777 5775 5771 5769 5766 5763 5760 5758 5755 5752 5749 5746 5743 5740 5736 5734 5732 5726 5724 5723 5719 5715 5711 5707 5709 5708 5704 5703 5699 5693 5688 5683 5681 5678 5673 5668 5664 5660 5655 5652 5649 5645 5640 5636 5632 5626 5621 5617 5612 5607 5602 5596 5590 5585 5578 5571 5564 5558 5550 5541 5533 5525 5517 5510 5502 5494 5486 5478 5470 5461 5451 5442 5438 5435 5431 5427 5423 5419 5417 5415 5415 5415 5416
5776 5776 5774 5772 5770 5766 5764 5761 5757 5754 5751 5748 5746 5743 5739 5737 5733 5728 5726 5724 5720 5718 5716 5712 5708 5704 5702 5702 5699 5697 5696 5692 5686 5681 5677 5674 5670 5665 5661 5657 5654 5649 5646 5643 5638 5634 5630 5624 5619 5615 5610 5605 5600 5594 5588 5582 5576 5570 5563 5555 5549 5542 5533 5525 5518 5511 5504 5496 5487 5478 5468 5460 5451 5442 5433 5429 5426 5422 5417 5413 5409 5407 5406 5406 5407 5408
5769 5768 5768 5766 5763 5760 5758 5755 5752 5749 5746 5742 5740 5736 5734 5731 5725 5721 5719 5716 5713 5711 5709 5706 5702 5698 5696 5695 5692 5691 5688 5684 5679 5674 5671 5668 5662 5658 5654 5651 5647 5643 5639 5635 5631 5626 5622 5616 5611 5607 5603 5597 5593 5587 5580 5574 5567 5561 5555 5547 5540 5534 5526 5518 5511 5505 5497 5489 5480 5469 5458 5449 5440 5432 5426 5421 5417 5413 5408 5403 5399 5396 5396 5397 5397 5399
5761 5760 5760 5758 5756 5754 5751 5749 5746 5744 5740 5737 5734 5731 5729 5726 5720 5717 5713 5709 5707 5705 5704 5702 5697 5693 5692 5688 5685 5685 5680 5675 5671 5668 5664 5660 5654 5650 5647 5643 5639 5635 5631 5627 5623 5618 5613 5609 5604 5599 5595 5590 5584 5579 5572 5565 5559 5553 5546 5539 5532 5525 5518 5510 5502 5496 5489 5481 5473 5462 5450 5441 5431 5423 5417 5413 5408 5403 5398 5394 5389 5387 5386 5387 5388 5390
5756 5755 5753 5752 5750 5747 5745 5743 5740 5738 5735 5731 5728 5725 5723 5720 5716 5712 5707 5703 5700 5698 5698 5697 5691 5688 5686 5682 5680 5679 5675 5669 5664 5662 5658 5652 5647 5644 5640 5637 5632 5628 5624 5619 5615 5611 5605 5601 5596 5591 5587 5582 5577 5571 5564 5557 5550 5544 5538 5531 5524 5517 5510 5501 5493 5486 5479 5472 5465 5454 5442 5433 5424 5415 5410 5405 5400 5394 5389 5384 5381 5378 5377 5378 5378 5381
5751 5749 5747 5746 5744 5742 5739 5737 5735 5733 5729 5725 5723 5720 5717 5714 5711 5706 5700 5696 5693 5689 5690 5689 5685 5682 5678 5676 5677 5674 5668 5663 5658 5655 5651 5645 5640 5637 5633 5630 5627 5622 5617 5612 5608 5603 5598 5593 5588 5583 5579 5574 5569 5564 5557 5550 5542 5535 5528 5521 5515 5509 5502 5495 5487 5479 5471 5463 5455 5446 5434 5424 5416 5408 5402 5397 5391 5386 5381 5376 5372 5370 5369 5369 5369 5371
5745 5744 5742 5740 5738 5736 5733 5731 5730 5728 5724 5720 5718 5715 5711 5708 5706 5700 5692 5688 5686 5681 5680 5680 5678 5675 5670 5669 5671 5667 5661 5655 5651 5648 5643 5637 5634 5630 5627 5624 5619 5615 5609 5604 5600 5596 5591 5586 5581 5576 5571 5565 5560 5555 5549 5542 5534 5527 5519 5511 5504 5498 5492 5486 5480 5473 5463 5453 5445 5436 5425 5415 5408 5401 5395 5389 5383 5378 5373 5369 5365 5361 5360 5360 5361 5362
5738 5736 5736 5734 5732 5729 5728 5726 5724 5721 5717 5715 5711 5708 5706 5703 5700 5694 5686 5681 5679 5675 5670 5670 5672 5669 5664 5664 5663 5659 5652 5647 5644 5641 5635 5631 5628 5624 5621 5617 5612 5607 5601 5596 5593 5589 5584 5579 5574 5570 5565 5559 5553 5547 5540 5533 5526 5518 5511 5503 5496 5489 5482 5476 5469 5463 5455 5445 5435 5425 5415 5405 5399 5393 5387 5381 5375 5369 5365 5361 5357 5354 5351 5351 5352 5353
5731 5728 5729 5728 5724 5722 5721 5720 5717 5714 5712 5708 5704 5701 5700 5697 5693 5688 5681 5676 5674 5671 5663 5660 5662 5661 5658 5660 5659 5653 5646 5641 5637 5634 5628 5625 5622 5618 5615 5611 5606 5601 5594 5590 5587 5582 5577 5572 5568 5563 5558 5552 5546 5539 5532 5525 5518 5510 5503 5496 5488 5482 5476 5469 5461 5454 5446 5437 5427 5416 5406 5398 5391 5386 5379 5373 5366 5361 5357 5352 5349 5346 5343 5341 5342 5344
5725 5721 5721 5720 5717 5715 5715 5713 5711 5709 5706 5703 5699 5695 5693 5691 5686 5681 5676 5672 5670 5666 5658 5653 5651 5650 5649 5652 5652 5647 5641 5635 5630 5626 5622 5618 5615 5612 5608 5604 5599 5593 5587 5584 5581 5576 5571 5566 5561 5555 5550 5544 5539 5532 5525 5517 5510 5503 5495 5488 5481 5474 5468 5463 5456 5448 5439 5430 5420 5409 5398 5391 5385 5379 5372 5365 5359 5353 5348 5344 5340 5337 5334 5332 5333 5335
5718 5714 5713 5712 5710 5708 5708 5706 5703 5702 5700 5696 5692 5689 5687 5685 5679 5675 5669 5667 5667 5659 5653 5650 5643 5641 5644 5645 5642 5638 5633 5629 5624 5618 5614 5611 5607 5605 5601 5596 5591 5585 5580 5577 5574 5569 5564 5560 5554 5548 5543 5537 5532 5525 5518 5511 5503 5496 5488 5481 5474 5468 5461 5454 5448 5440 5431 5423 5413 5402 5392 5384 5378 5372 5365 5358 5352 5346 5340 5336 5332 5328 5325 5323 5323 5325
5711 5707 5704 5705 5704 5701 5700 5698 5696 5695 5693 5689 5685 5682 5681 5678 5675 5669 5661 5662 5662 5651 5648 5647 5634 5632 5642 5641 5635 5632 5627 5622 5618 5612 5607 5604 5602 5599 5595 5590 5584 5579 5575 5571 5567 5562 5558 5553 5547 5542 5537 5531 5525 5519 5512 5505 5497 5489 5481 5474 5468 5462 5455 5448 5441 5432 5424 5415 5406 5396 5386 5378 5372 5365 5358 5351 5345 5339 5333 5328 5324 5319 5316 5314 5313 5316
5704 5700 5697 5696 5696 5696 5693 5691 5690 5689 5685 5681 5678 5676 5674 5670 5668 5662 5656 5655 5653 5645 5645 5639 5624 5625 5634 5630 5627 5625 5619 5614 5610 5605 5602 5599 5597 5594 5588 5583 5578 5572 5568 5564 5560 5556 5551 5545 5540 5534 5529 5524 5519 5513 5506 5498 5491 5483 5475 5467 5461 5456 5449 5442 5435 5426 5417 5409 5399 5389 5379 5372 5366 5359 5352 5345 5338 5332 5327 5321 5317 5312 5308 5306 5305 5308
5698 5695 5691 5687 5686 5688 5687 5685 5684 5681 5677 5673 5671 5669 5666 5664 5659 5654 5652 5648 5640 5642 5643 5628 5617 5623 5623 5617 5619 5618 5610 5606 5602 5597 5595 5592 5590 5587 5581 5576 5571 5566 5562 5558 5553 5549 5543 5538 5533 5527 5522 5516 5511 5506 5500 5492 5484 5477 5469 5461 5454 5449 5442 5435 5428 5419 5410 5401 5391 5382 5373 5366 5360 5353 5346 5339 5332 5326 5320 5315 5310 5305 5301 5298 5298 5300
5691 5689 5687 5682 5679 5679 5680 5679 5678 5674 5671 5668 5665 5663 5659 5656 5653 5650 5648 5640 5632 5638 5638 5620 5614 5621 5614 5606 5612 5611 5601 5597 5594 5590 5589 5586 5583 5579 5574 5569 5564 5559 5555 5551 5547 5542 5537 5531 5526 5520 5514 5509 5504 5498 5492 5486 5479 5471 5464 5456 5447 5440 5434 5428 5420 5411 5402 5392 5383 5374 5366 5359 5353 5347 5340 5333 5326 5320 5314 5308 5304 5299 5294 5291 5291 5293
5683 5682 5681 5678 5674 5673 5673 5672 5670 5667 5666 5663 5659 5657 5652 5647 5646 5644 5639 5633 5629 5627 5624 5619 5614 5612 5608 5604 5602 5600 5595 5589 5585 5584 5583 5580 5576 5572 5566 5561 5557 5553 5548 5544 5540 5535 5530 5525 5519 5513 5508 5502 5497 5492 5484 5478 5472 5465 5458 5451 5442 5434 5426 5420 5413 5404 5394 5384 5376 5367 5359 5352 5346 5340 5333 5327 5320 5314 5308 5303 5298 5293 5289 5285 5285 5287
5673 5673 5675 5671 5667 5668 5667 5665 5662 5658 5658 5657 5653 5649 5645 5640 5639 5636 5628 5627 5625 5613 5610 5618 5613 5600 5601 5604 5595 5589 5586 5582 5579 5578 5575 5571 5568 5563 5558 5554 5550 5546 5541 5536 5532 5527 5522 5517 5512 5506 5501 5496 5491 5486 5479 5471 5465 5458 5450 5443 5436 5427 5419 5412 5405 5397 5387 5377 5368 5360 5352 5346 5340 5334 5327 5321 5314 5308 5302 5297 5292 5288 5284 5280 5279 5280
5663 5663 5668 5663 5658 5661 5661 5656 5655 5651 5648 5651 5647 5639 5636 5635 5631 5627 5622 5622 5617 5603 5601 5612 5607 5593 5594 5598 5589 5580 5576 5574 5573 5570 5567 5564 5560 5555 5551 5547 5543 5539 5534 5529 5524 5519 5514 5509 5505 5500 5495 5489 5485 5479 5473 5466 5459 5452 5445 5437 5430 5421 5413 5405 5397 5388 5380 5370 5361 5352 5345 5340 5334 5328 5322 5315 5309 5302 5296 5291 5287 5283 5279 5275 5273 5274
5654 5653 5659 5654 5647 5653 5654 5648 5647 5644 5640 5643 5640 5630 5628 5630 5625 5619 5617 5616 5607 5597 5598 5600 5595 5592 5594 5589 5579 5573 5570 5569 5568 5564 5560 5557 5553 5548 5544 5540 5536 5531 5527 5523 5517 5512 5507 5501 5497 5492 5487 5482 5477 5472 5467 5460 5453 5446 5439 5431 5423 5415 5406 5398 5390 5381 5372 5363 5354 5346 5339 5334 5328 5322 5316 5310 5304 5298 5291 5286 5282 5278 5274 5270 5268 5268
5646 5645 5649 5644 5637 5642 5646 5641 5637 5635 5633 5633 5631 5624 5623 5623 5619 5612 5610 5608 5599 5592 5593 5589 5582 5586 5591 5582 5572 5568 5566 5563 5561 5558 5554 5550 5545 5541 5537 5532 5528 5524 5520 5516 5510 5505 5500 5494 5489 5484 5479 5474 5470 5464 5459 5454 5446 5439 5432 5424 5416 5408 5400 5391 5383 5375 5365 5355 5347 5340 5333 5328 5323 5317 5311 5305 5299 5293 5287 5281 5277 5273 5269 5265 5263 5262
5640 5637 5639 5635 5627 5630 5636 5632 5628 5628 5625 5621 5623 5622 5618 5613 5609 5606 5603 5601 5594 5586 5585 5580 5574 5577 5579 5573 5568 5566 5561 5557 5554 5551 5547 5543 5539 5534 5529 5525 5521 5517 5513 5509 5504 5498 5492 5487 5482 5477 5473 5468 5463 5458 5452 5446 5440 5433 5425 5419 5410 5402 5394 5385 5376 5368 5358 5348 5339 5333 5327 5322 5317 5311 5306 5300 5294 5288 5282 5277 5273 5269 5265 5261 5258 5258
5634 5630 5630 5626 5618 5619 5624 5622 5619 5619 5614 5612 5617 5618 5610 5603 5600 5597 5595 5595 5589 5579 5575 5573 5571 5571 5568 5564 5563 5561 5557 5554 5549 5544 5539 5535 5531 5527 5523 5519 5515 5511 5506 5501 5497 5492 5486 5481 5476 5470 5466 5462 5457 5452 5445 5438 5432 5425 5418 5411 5404 5395 5387 5378 5369 5360 5350 5341 5332 5325 5321 5316 5311 5306 5301 5296 5290 5284 5279 5274 5269 5265 5261 5258 5255 5254
5626 5623 5621 5619 5611 5609 5613 5612 5608 5606 5605 5605 5608 5607 5601 5596 5592 5587 5587 5589 5583 5572 5567 5565 5565 5564 5560 5556 5555 5553 5551 5548 5543 5538 5533 5528 5524 5519 5516 5513 5508 5504 5500 5494 5489 5484 5479 5474 5469 5463 5459 5454 5449 5444 5438 5431 5424 5418 5410 5403 5396 5388 5379 5371 5362 5353 5343 5335 5326 5319 5315 5311 5306 5301 5296 5292 5286 5281 5275 5270 5266 5262 5259 5255 5252 5250
5618 5615 5612 5610 5605 5600 5603 5603 5594 5593 5598 5599 5596 5595 5594 5589 5583 5578 5579 5582 5577 5567 5560 5558 5559 5557 5552 5549 5549 5546 5543 5541 5536 5531 5527 5521 5517 5513 5508 5505 5501 5497 5493 5488 5482 5477 5471 5467 5462 5457 5452 5447 5442 5437 5431 5425 5418 5412 5404 5397 5390 5382 5373 5364 5356 5346 5337 5329 5320 5314 5310 5306 5302 5296 5291 5287 5282 5277 5272 5267 5262 5259 5256 5253 5250 5248
5610 5608 5604 5601 5597 5593 5593 5592 5583 5582 5592 5594 5587 5585 5584 5579 5574 5569 5569 5575 5572 5561 5553 5552 5551 5549 5545 5542 5542 5539 5535 5532 5528 5524 5520 5514 5510 5506 5502 5498 5494 5489 5485 5480 5475 5469 5464 5459 5455 5451 5447 5441 5436 5430 5425 5418 5412 5406 5399 5392 5384 5376 5366 5357 5349 5341 5332 5323 5316 5309 5305 5301 5297 5292 5287 5283 5278 5273 5268 5263 5259 5255 5253 5251 5248 5246
5603 5601 5598 5593 5589 5586 5583 5580 5575 5573 5581 5588 5584 5578 5573 5569 5566 5559 5557 5566 5568 5555 5547 5546 5543 5541 5538 5535 5535 5532 5527 5524 5521 5517 5512 5507 5503 5500 5495 5491 5487 5482 5478 5473 5467 5462 5457 5452 5447 5444 5440 5434 5428 5423 5418 5412 5406 5400 5393 5386 5378 5370 5361 5352 5343 5335 5326 5318 5310 5305 5300 5296 5292 5287 5282 5279 5274 5269 5265 5260 5255 5252 5249 5248 5246 5244
5595 5593 5591 5585 5581 5580 5575 5570 5567 5564 5568 5576 5576 5570 5565 5561 5558 5550 5545 5555 5562 5551 5542 5539 5536 5533 5532 5529 5526 5523 5519 5516 5513 5508 5504 5500 5497 5492 5488 5484 5480 5476 5471 5466 5461 5455 5450 5445 5440 5436 5432 5427 5422 5416 5411 5405 5399 5393 5387 5380 5372 5365 5356 5347 5338 5329 5321 5313 5306 5300 5296 5291 5286 5281 5277 5274 5270 5265 5261 5257 5252 5248 5246 5245 5243 5242
5587 5584 5583 5577 5573 5573 5567 5561 5560 5558 5560 5564 5563 5560 5557 5551 5548 5542 5537 5545 5553 5544 5535 5532 5530 5528 5526 5522 5519 5515 5511 5509 5506 5501 5496 5493 5489 5485 5481 5478 5474 5469 5464 5460 5455 5449 5444 5439 5434 5429 5425 5420 5415 5410 5404 5399 5393 5387 5380 5374 5366 5358 5350 5341 5333 5324 5315 5308 5301 5295 5291 5287 5282 5277 5272 5269 5265 5261 5257 5254 5249 5245 5242 5240 5240 5239
5579 5575 5572 5569 5567 5565 5558 5553 5552 5553 5554 5555 5552 5551 5548 5542 5540 5537 5532 5535 5539 5533 5528 5527 5524 5522 5520 5515 5512 5508 5504 5501 5498 5493 5489 5486 5482 5479 5475 5471 5467 5463 5458 5453 5448 5443 5438 5433 5428 5423 5419 5414 5409 5404 5399 5393 5387 5380 5374 5367 5359 5351 5343 5335 5326 5319 5310 5303 5297 5291 5286 5283 5278 5273 5268 5264 5261 5257 5252 5249 5246 5242 5238 5236 5236 5236
5570 5566 5563 5561 5559 5556 5550 5545 5543 5546 5551 5549 5542 5541 5539 5534 5532 5531 5527 5527 5526 5524 5523 5521 5517 5515 5512 5508 5504 5500 5496 5494 5490 5485 5482 5479 5476 5473 5469 5464 5460 5456 5451 5446 5441 5436 5431 5426 5422 5417 5413 5408 5403 5398 5393 5388 5382 5375 5368 5361 5354 5346 5338 5329 5321 5313 5306 5299 5293 5288 5283 5278 5273 5268 5263 5259 5257 5253 5249 5245 5242 5239 5236 5233 5232 5231
5561 5557 5554 5553 5550 5547 5543 5537 5532 5537 5547 5544 5534 5533 5533 5527 5525 5525 5522 5521 5519 5517 5516 5513 5510 5507 5503 5499 5496 5492 5489 5486 5482 5478 5475 5472 5469 5467 5462 5458 5454 5449 5445 5440 5435 5430 5425 5420 5415 5410 5406 5401 5396 5391 5387 5381 5376 5369 5362 5356 5348 5340 5332 5324 5316 5309 5302 5295 5290 5285 5280 5275 5269 5264 5259 5255 5253 5249 5246 5242 5239 5236 5233 5230 5228 5227
5552 5548 5545 5545 5543 5537 5534 5531 5525 5527 5537 5537 5529 5526 5525 5521 5519 5519 5516 5513 5512 5510 5507 5504 5501 5498 5494 5491 5488 5484 5480 5478 5474 5471 5468 5465 5462 5459 5455 5451 5447 5442 5438 5434 5429 5424 5419 5413 5408 5404 5399 5395 5390 5385 5380 5375 5369 5363 5356 5350 5342 5334 5326 5319 5311 5304 5298 5291 5286 5282 5277 5272 5266 5261 5255 5252 5249 5246 5243 5239 5236 5233 5231 5228 5225 5224
5543 5541 5537 5536 5535 5529 5525 5524 5523 5523 5526 5526 5523 5520 5517 5513 5514 5513 5509 5506 5504 5501 5499 5495 5492 5490 5487 5483 5479 5475 5472 5469 5466 5464 5461 5457 5455 5451 5447 5444 5440 5435 5431 5427 5423 5418 5413 5408 5403 5398 5393 5389 5384 5378 5373 5369 5363 5357 5351 5344 5337 5329 5322 5314 5307 5300 5294 5288 5283 5279 5275 5269 5263 5257 5252 5248 5246 5243 5240 5237 5234 5231 5229 5226 5223 5221
5535 5534 5529 5526 5525 5522 5518 5517 5518 5518 5517 5516 5515 5513 5510 5507 5507 5505 5502 5499 5496 5493 5491 5487 5483 5481 5479 5475 5471 5467 5464 5461 5459 5456 5453 5450 5447 5443 5439 5436 5433 5429 5425 5421 5417 5413 5408 5403 5398 5393 5387 5383 5378 5372 5367 5362 5357 5352 5346 5340 5332 5324 5317 5310 5303 5297 5291 5285 5280 5276 5272 5267 5261 5255 5250 5245 5242 5240 5237 5234 5232 5229 5227 5225 5222 5220
5527 5524 5519 5517 5515 5512 5513 5514 5512 5509 5508 5508 5507 5505 5502 5500 5499 5497 5494 5491 5488 5486 5482 5479 5476 5473 5470 5467 5463 5460 5457 5455 5452 5448 5446 5443 5439 5435 5432 5429 5425 5422 5418 5414 5410 5406 5402 5397 5392 5387 5382 5377 5372 5367 5361 5356 5351 5347 5341 5335 5327 5319 5311 5305 5298 5292 5287 5282 5277 5273 5269 5265 5260 5254 5248 5242 5239 5236 5234 5232 5230 5227 5226 5224 5222 5220
5520 5515 5508 5509 5508 5503 5505 5510 5507 5501 5500 5500 5498 5495 5494 5492 5489 5488 5486 5483 5480 5477 5474 5471 5468 5465 5462 5458 5455 5453 5450 5448 5445 5442 5439 5436 5432 5428 5425 5422 5418 5415 5411 5408 5404 5400 5396 5392 5387 5383 5378 5373 5367 5362 5357 5351 5346 5340 5334 5328 5321 5314 5306 5299 5293 5288 5283 5278 5275 5270 5266 5262 5257 5252 5246 5240 5236 5233 5231 5229 5227 5225 5224 5223 5221 5220
5511 5506 5500 5501 5500 5496 5499 5502 5499 5494 5493 5491 5489 5487 5486 5483 5480 5479 5478 5475 5471 5469 5466 5463 5461 5457 5454 5450 5448 5446 5443 5441 5439 5436 5432 5429 5426 5422 5418 5415 5412 5408 5405 5402 5398 5395 5391 5387 5382 5378 5373 5369 5363 5358 5352 5347 5341 5334 5328 5322 5315 5309 5302 5294 5288 5283 5278 5274 5271 5267 5263 5259 5255 5250 5245 5239 5233 5230 5228 5227 5225 5223 5222 5221 5220 5219
5501 5498 5497 5494 5490 5489 5494 5494 5489 5485 5484 5483 5481 5479 5477 5474 5472 5471 5470 5467 5463 5460 5457 5455 5452 5449 5446 5443 5440 5438 5436 5434 5432 5430 5426 5423 5420 5416 5412 5409 5405 5402 5399 5396 5392 5389 5385 5381 5377 5373 5368 5364 5359 5353 5348 5342 5335 5329 5323 5316 5309 5303 5297 5291 5285 5279 5275 5271 5268 5265 5261 5257 5252 5248 5243 5238 5232 5228 5226 5225 5223 5221 5220 5219 5219 5218
5493 5492 5492 5487 5480 5481 5486 5486 5480 5475 5475 5474 5472 5469 5467 5465 5464 5462 5461 5459 5455 5452 5450 5447 5444 5442 5439 5435 5433 5431 5429 5427 5425 5423 5420 5417 5413 5409 5406 5403 5400 5397 5394 5390 5387 5383 5380 5376 5372 5367 5363 5358 5353 5348 5343 5337 5330 5323 5317 5310 5304 5297 5291 5286 5282 5276 5272 5268 5265 5262 5258 5255 5250 5246 5241 5236 5232 5228 5224 5222 5221 5220 5218 5217 5217 5217
5487 5488 5484 5478 5474 5474 5476 5475 5471 5467 5466 5466 5464 5460 5457 5457 5455 5453 5452 5450 5447 5444 5442 5439 5436 5434 5431 5428 5426 5425 5423 5421 5418 5416 5413 5410 5407 5403 5400 5397 5394 5391 5388 5385 5381 5378 5374 5370 5366 5362 5357 5353 5348 5343 5337 5331 5325 5318 5311 5304 5298 5292 5286 5281 5277 5273 5269 5265 5261 5259 5255 5251 5248 5243 5238 5234 5231 5227 5224 5221 5218 5217 5217 5215 5215 5215